x

Stingray Point, Va (44058) Weather Station

2:30pm - Tue 26th Sep 2017 All times are EDT. -4 hours from GMT.

  • Wind
    25mph, 27mph gusts
  • Air Temp 75°f
  • Sea Pressure 1012.6mb
  • Stingray Point, Va
  • Stingray Point, Va

More Historic Weather Station data

Upgrade to MSW Pro to gain access to the past 30 days of data for over 8000 Wavebouys and Weather Stations around the globe.

Join

Comparision Forecast

View Surf forecast
   
Tue 09/26 2:30pm  -   -  25 27 mph 1012.6mb - 75f
2:20pm  -   -  25 29 mph 1012.6mb - 75f
2:10pm 2.5ft  -  22 27 mph 1012.6mb - 75f
2:00pm 2.5ft 3s 22 27 mph 1012.6mb 76f 75f
1:50pm  -   -  22 27 mph 1012.6mb - 75f
1:40pm  -   -  22 27 mph 1012.8mb - 75f
1:30pm  -   -  22 27 mph 1013.1mb - 75f
1:20pm  -   -  22 29 mph 1013.1mb - 75f
1:10pm 2.5ft  -  20 25 mph 1013.3mb - 75f
1:00pm 2.5ft 3s 20 25 mph 1013.5mb 76f 74f
12:50pm 2.5ft  -  22 25 mph 1013.7mb - 74f
12:40pm  -   -  20 25 mph 1013.8mb - 74f
12:30pm  -   -  20 25 mph 1013.9mb - 74f
12:20pm  -   -  20 25 mph 1013.9mb - 74f
12:10pm 2.5ft  -  20 22 mph 1014.1mb - 74f
12:00pm 2.5ft 3s 20 25 mph 1014.3mb 76f 74f
11:50am 2.5ft  -  20 22 mph 1014.3mb - 74f
11:40am  -   -  20 22 mph 1014.1mb - 74f
11:30am  -   -  20 22 mph 1014.1mb - 74f
11:20am  -   -  20 25 mph 1014.2mb - 74f
11:10am 3ft  -  20 22 mph 1014.3mb - 74f
11:00am 3ft 3s 20 22 mph 1014.4mb 76f 73f
10:50am 3ft  -  18 22 mph 1014.5mb - 73f
10:40am  -   -  20 22 mph 1014.5mb - 73f
10:30am  -   -  20 22 mph 1014.4mb - 73f
10:20am  -   -  20 25 mph 1014.5mb - 73f
10:10am 2.5ft  -  20 22 mph 1014.6mb - 73f
10:00am 2.5ft 3s 20 25 mph 1014.7mb 76f 73f
9:50am  -   -  20 25 mph 1014.7mb - 73f
9:40am  -   -  20 25 mph 1014.7mb - 73f
9:30am  -   -  20 22 mph 1014.7mb - 73f
9:20am  -   -  20 22 mph 1014.7mb - 73f
9:10am 2.5ft  -  20 25 mph 1014.7mb - 73f
9:00am 2.5ft 3s 18 22 mph 1014.6mb 76f 73f
8:50am 2.5ft  -  20 22 mph 1014.6mb - 73f
8:40am  -   -  18 22 mph 1014.5mb - 73f
8:30am  -   -  18 22 mph 1014.4mb - 73f
8:20am  -   -  18 22 mph 1014.6mb - 73f
8:10am 2.5ft  -  18 20 mph 1014.4mb - 73f
8:00am 2.5ft 3s 18 22 mph 1014.4mb 76f 73f
7:50am 2.5ft  -  18 20 mph 1014.4mb - 73f
7:40am  -   -  18 20 mph 1014.4mb - 73f
7:30am  -   -  18 22 mph 1014.3mb - 73f
7:20am  -   -  16 20 mph 1014.2mb - 73f
7:10am 2.5ft  -  16 18 mph 1014.2mb - 72f
7:00am 2.5ft 3s 18 20 mph 1014mb 76f 72f
6:50am 2.5ft  -  16 20 mph 1014.1mb - 72f
6:40am  -   -  18 20 mph 1014.1mb - 72f
6:30am  -   -  18 20 mph 1014.1mb - 72f
6:20am  -   -  18 20 mph 1014mb - 72f
6:10am 2.5ft  -  18 22 mph 1014mb - 72f
6:00am 2.5ft 3s 18 20 mph 1013.9mb 76f 72f
5:50am 2.5ft  -  18 22 mph 1013.9mb - 72f
5:40am  -   -  18 20 mph 1013.8mb - 72f
5:30am  -   -  18 22 mph 1013.7mb - 72f
5:20am  -   -  18 22 mph 1013.7mb - 72f
5:10am 2.5ft  -  18 22 mph 1013.7mb - 72f
5:00am 2.5ft 3s 18 22 mph 1013.7mb 76f 72f
4:50am 2.5ft  -  18 20 mph 1013.7mb - 72f
4:40am  -   -  18 22 mph 1013.7mb - 72f
4:30am  -   -  18 22 mph 1013.7mb - 72f
4:20am  -   -  18 20 mph 1013.8mb - 72f
4:10am 2.5ft  -  18 20 mph 1013.7mb - 72f
4:00am 2.5ft 3s 18 20 mph 1013.7mb 76f 72f
3:50am 2.5ft  -  16 20 mph 1013.8mb - 72f
3:40am  -   -  18 20 mph 1013.7mb - 72f
3:30am  -   -  18 22 mph 1013.8mb - 72f
3:20am  -   -  18 22 mph 1013.7mb - 73f
3:10am 2.5ft  -  18 22 mph 1013.7mb - 73f
3:00am 2.5ft 3s 18 22 mph 1013.9mb 77f 73f
2:50am 2.5ft  -  18 20 mph 1014mb - 72f
2:40am  -   -  18 20 mph 1014mb - 73f
2:30am  -   -  16 20 mph 1014.1mb - 73f
2:20am  -   -  16 20 mph 1014.2mb - 73f
2:10am 2ft  -  18 20 mph 1014.1mb - 72f
2:00am 2ft 3s 16 20 mph 1014.3mb 76f 72f
1:50am 2ft  -  16 20 mph 1014.4mb - 72f
1:40am  -   -  16 20 mph 1014.4mb - 72f
1:30am  -   -  16 20 mph 1014.4mb - 72f
1:20am  -   -  16 18 mph 1014.5mb - 72f
1:10am 1.6ft  -  16 18 mph 1014.5mb - 72f
1:00am 1.6ft 3s 16 20 mph 1014.6mb 77f 72f
12:50am 1.6ft  -  16 18 mph 1014.7mb - 72f
12:40am  -   -  16 18 mph 1014.7mb - 72f
12:30am  -   -  16 20 mph 1014.9mb - 72f
12:20am  -   -  16 18 mph 1015mb - 72f
12:10am 2ft  -  13 16 mph 1015.1mb - 72f
12:00am 2ft 3s 13 16 mph 1015mb 77f 72f
Mon 09/25 11:50pm 2ft  -  13 16 mph 1015.1mb - 72f
11:40pm  -   -  13 18 mph 1015.3mb - 72f
11:30pm  -   -  13 18 mph 1015.4mb - 72f
11:20pm  -   -  13 18 mph 1015.4mb - 72f
11:10pm 2ft  -  13 18 mph 1015.4mb - 72f
11:00pm 2ft 3s 16 18 mph 1015.5mb 77f 72f
10:50pm 2ft  -  16 18 mph 1015.4mb - 72f
10:40pm  -   -  13 18 mph 1015.5mb - 72f
10:30pm  -   -  13 16 mph 1015.6mb - 72f
10:20pm  -   -  16 18 mph 1015.7mb - 73f
10:10pm 2ft  -  16 18 mph 1015.6mb - 73f
10:00pm 2ft 3s 16 18 mph 1015.5mb 77f 73f
9:50pm 2ft  -  16 18 mph 1015.6mb - 73f
9:40pm  -   -  16 20 mph 1015.7mb - 73f
9:30pm  -   -  16 20 mph 1015.8mb - 73f
9:20pm  -   -  16 20 mph 1015.8mb - 73f
9:10pm 2ft  -  16 20 mph 1015.7mb - 73f
9:00pm 2ft 3s 16 18 mph 1015.6mb 77f 73f
8:50pm  -   -  16 20 mph 1015.5mb - 73f
8:40pm  -   -  16 18 mph 1015.3mb - 73f
8:30pm  -   -  16 18 mph 1015.3mb - 74f
8:20pm  -   -  16 18 mph 1015.2mb - 74f
8:10pm 2ft  -  16 18 mph 1015.3mb - 74f
8:00pm 2ft 3s 16 18 mph 1015.3mb 77f 74f
7:50pm 2ft  -  18 20 mph 1015.1mb - 74f
7:40pm  -   -  18 20 mph 1014.9mb - 75f
7:30pm  -   -  16 20 mph 1014.9mb - 75f
7:20pm  -   -  16 18 mph 1014.9mb - 75f
7:10pm 1.6ft  -  13 18 mph 1015.1mb - 75f
7:00pm 1.6ft 3s 13 16 mph 1015.3mb 77f 75f
6:50pm  -   -  16 18 mph 1015.1mb - 75f
6:40pm  -   -  13 18 mph 1015mb - 75f
6:30pm  -   -  13 16 mph 1014.9mb - 75f
6:20pm  -   -  13 16 mph 1015mb - 75f
6:10pm 1.3ft  -  13 16 mph 1015mb - 76f
6:00pm 1.3ft 3s 13 16 mph 1015mb 77f 76f
5:50pm 1.3ft  -  13 16 mph 1015.1mb - 76f
5:40pm  -   -  13 16 mph 1015.2mb - 76f
5:30pm  -   -  13 16 mph 1015.2mb - 76f
5:20pm  -   -  13 16 mph 1015.3mb - 76f
5:10pm 1ft  -  13 16 mph 1015.3mb - 76f
5:00pm 1ft 2s 11 13 mph 1015.4mb 78f 76f
4:50pm 1ft  -  9 13 mph 1015.3mb - 76f
4:40pm  -   -  9 11 mph 1015.4mb - 76f
4:30pm  -   -  9 11 mph 1015.5mb - 76f
4:20pm  -   -  9 11 mph 1015.5mb - 76f
4:10pm 0.7ft  -  7 9 mph 1015.6mb - 76f
4:00pm 0.7ft  -  9 11 mph 1015.6mb 77f 77f
3:50pm 0.7ft  -  7 9 mph 1015.6mb - 77f
3:40pm  -   -  7 9 mph 1015.7mb - 77f
3:30pm  -   -  7 9 mph 1015.8mb - 76f
3:20pm  -   -  9 11 mph 1015.7mb - 76f
3:10pm 1ft  -  9 11 mph 1015.7mb - 76f
3:00pm 1ft 3s 9 11 mph 1015.8mb 77f 76f
2:50pm 1ft  -  9 11 mph 1015.8mb - 76f
2:40pm  -   -  9 11 mph 1015.9mb - 76f
2:30pm  -   -  9 11 mph 1016mb - 76f
2:20pm  -   -  9 11 mph 1016.1mb - 76f
2:10pm 1.3ft  -  9 11 mph 1016.3mb - 75f
2:00pm 1.3ft 3s 9 11 mph 1016.4mb 77f 75f
1:50pm  -   -  9 11 mph 1016.5mb - 75f
1:40pm  -   -  11 13 mph 1016.5mb - 75f
1:30pm  -   -  11 13 mph 1016.4mb - 75f
1:20pm  -   -  11 13 mph 1016.5mb - 75f
1:10pm 1.3ft  -  11 13 mph 1016.7mb - 75f
1:00pm 1.3ft 2s 11 13 mph 1016.8mb 77f 74f
12:50pm 1.3ft  -  11 13 mph 1016.7mb - 74f
12:40pm  -   -  13 16 mph 1016.7mb - 74f
12:30pm  -   -  11 16 mph 1016.8mb - 74f
12:20pm  -   -  11 13 mph 1016.9mb - 74f
12:10pm 1.3ft  -  11 13 mph 1017.1mb - 74f
12:00pm 1.3ft 2s 11 13 mph 1017.2mb 77f 73f
11:50am 1.3ft  -  11 13 mph 1017.2mb - 73f
11:40am  -   -  11 11 mph 1017.2mb - 73f
11:30am  -   -  9 13 mph 1017.4mb - 73f
11:20am  -   -  9 13 mph 1017.4mb - 73f
11:10am 1.3ft  -  11 13 mph 1017.3mb - 73f
11:00am 1.3ft 2s 11 13 mph 1017.3mb 76f 73f
10:50am 1.3ft  -  11 13 mph 1017.3mb - 73f
10:40am  -   -  11 13 mph 1017.3mb - 73f
10:30am  -   -  11 13 mph 1017.5mb - 73f
10:20am  -   -  11 13 mph 1017.6mb - 73f
10:10am 1.3ft  -  11 13 mph 1017.6mb - 72f
10:00am 1.3ft 2s 11 13 mph 1017.5mb 76f 72f
9:50am 1.3ft  -  11 13 mph 1017.4mb - 72f
9:40am  -   -  13 16 mph 1017.3mb - 72f
9:30am  -   -  13 16 mph 1017.4mb - 72f
9:20am  -   -  13 16 mph 1017.4mb - 72f
9:10am 1.3ft  -  13 16 mph 1017.5mb - 72f
9:00am 1.3ft 3s 11 16 mph 1017.4mb 76f 73f
8:50am  -   -  11 16 mph 1017.2mb - 73f
8:40am  -   -  13 16 mph 1017.2mb - 72f
8:30am  -   -  13 16 mph 1017.3mb - 73f
8:20am  -   -  11 13 mph 1017.3mb - 73f
8:10am 1.3ft  -  11 13 mph 1017.3mb - 73f
8:00am 1.3ft 2s 13 13 mph 1017.3mb 76f 73f
7:50am 1.3ft  -  11 16 mph 1017.3mb - 74f
7:40am  -   -  11 13 mph 1017.3mb - 74f
7:30am  -   -  11 13 mph 1017.2mb - 74f
7:20am  -   -  13 16 mph 1017mb - 74f
7:10am 1.3ft  -  11 13 mph 1016.9mb - 74f
7:00am 1.3ft 2s 11 16 mph 1016.8mb 76f 74f
6:50am 1.3ft  -  11 16 mph 1016.8mb - 74f
6:40am  -   -  11 13 mph 1016.7mb - 74f
6:30am  -   -  11 13 mph 1016.6mb - 74f
6:20am  -   -  11 13 mph 1016.6mb - 74f
6:10am 1.3ft  -  11 13 mph 1016.5mb - 74f
6:00am 1.3ft 2s 11 13 mph 1016.4mb 76f 74f
5:50am 1.3ft  -  9 11 mph 1016.4mb - 74f
5:40am  -   -  9 11 mph 1016.4mb - 74f
5:30am  -   -  11 11 mph 1016.3mb - 75f
5:20am  -   -  11 13 mph 1016.1mb - 75f
5:10am 1.3ft  -  9 11 mph 1016.1mb - 75f
5:00am 1.3ft 2s 11 13 mph 1016.1mb 76f 75f
4:50am 1.3ft  -  11 13 mph 1016mb - 76f
4:40am  -   -  11 13 mph 1015.9mb - 76f
4:30am  -   -  11 13 mph 1015.9mb - 76f
4:20am  -   -  11 13 mph 1015.9mb - 76f
4:10am 1ft  -  11 13 mph 1015.9mb - 76f
4:00am 1ft 2s 11 13 mph 1015.8mb 76f 76f
3:50am  -   -  9 11 mph 1016mb - 75f
3:40am  -   -  9 11 mph 1016mb - 75f
3:30am  -   -  9 11 mph 1016mb - 75f
3:20am  -   -  9 11 mph 1016.1mb - 75f
3:10am 1ft  -  9 11 mph 1016.1mb - 76f
3:00am 1ft 2s 9 11 mph 1016.1mb 76f 76f
2:50am 1ft  -  9 11 mph 1016mb - 76f
2:40am  -   -  11 13 mph 1015.9mb - 76f
2:30am  -   -  11 13 mph 1016mb - 76f
2:20am  -   -  11 13 mph 1016.2mb - 76f
2:10am 0.7ft  -  11 13 mph 1016.2mb - 76f
2:00am 0.7ft  -  11 13 mph 1016.2mb 77f 76f
1:50am  -   -  11 13 mph 1016.3mb - 77f
1:40am  -   -  11 13 mph 1016.3mb - 77f
1:30am  -   -  11 13 mph 1016.3mb - 77f
1:20am  -   -  9 11 mph 1016.3mb - 77f
1:10am 0.3ft  -  9 11 mph 1016.4mb - 77f
1:00am 0.3ft  -  9 11 mph 1016.4mb 77f 76f
12:50am  -   -  9 11 mph 1016.5mb - 76f
12:40am  -   -  9 9 mph 1016.5mb - 76f
12:30am  -   -  9 9 mph 1016.6mb - 76f
12:20am  -   -  9 11 mph 1016.6mb - 76f
12:10am 0.3ft  -  9 9 mph 1016.7mb - 76f
12:00am 0.3ft  -  7 9 mph 1016.7mb 77f 76f
Sun 09/24 11:50pm  -   -  7 9 mph 1016.9mb - 76f
11:40pm  -   -  7 9 mph 1017mb - 76f
11:30pm  -   -  4 7 mph 1017mb - 76f
11:20pm  -   -  4 7 mph 1017.1mb - 76f
11:10pm 0.3ft  -  4 4 mph 1017.1mb - 76f
11:00pm 0.3ft  -  4 4 mph 1017.2mb 77f 76f
10:50pm 0.3ft  -  4 4 mph 1017.1mb - 76f
10:40pm  -   -  4 4 mph 1017.1mb - 76f
10:30pm  -   -  4 7 mph 1017.1mb - 77f
10:20pm  -   -  4 7 mph 1017.1mb - 77f
10:10pm 0.3ft  -  4 7 mph 1017.1mb - 77f
10:00pm 0.3ft  -  4 7 mph 1017.2mb 77f 77f
9:50pm 0.3ft  -  4 7 mph 1017.2mb - 77f
9:40pm  -   -  4 7 mph 1017.2mb - 77f
9:30pm  -   -  4 7 mph 1017.2mb - 77f
9:20pm  -   -  4 7 mph 1017.3mb - 77f
9:10pm 0.3ft  -  4 7 mph 1017.3mb - 77f
9:00pm 0.3ft  -  4 7 mph 1017.3mb 77f 77f
8:50pm  -   -  4 7 mph 1017.3mb - 77f
8:40pm  -   -  4 7 mph 1017.3mb - 77f
8:30pm  -   -  7 7 mph 1017.2mb - 77f
8:20pm  -   -  7 7 mph 1017.2mb - 77f
8:10pm 0.3ft  -  7 7 mph 1017.2mb - 78f
8:00pm 0.3ft  -  7 9 mph 1017.1mb 77f 78f
7:50pm 0.3ft  -  7 9 mph 1017mb - 77f
7:40pm  -   -  7 7 mph 1017mb - 78f
7:30pm  -   -  4 7 mph 1016.9mb - 78f
7:20pm  -   -  4 7 mph 1016.9mb - 78f
7:00pm 0.3ft  -  4 4 mph 1017mb 77f 78f
6:50pm  -   -  4 7 mph 1016.9mb - 78f
6:40pm  -   -  7 7 mph 1017mb - 79f
6:30pm  -   -  7 7 mph 1016.9mb - 79f
6:10pm  -   -  4 7 mph 1017mb - 79f
5:50pm  -   -  4 7 mph 1017mb - 80f
5:40pm  -   -  4 7 mph 1017.1mb - 80f
5:30pm  -   -  4 7 mph 1017.1mb - 79f
5:20pm  -   -  7 7 mph 1017mb - 79f
5:10pm 0.7ft  -  7 7 mph 1017mb - 79f
5:00pm 0.7ft  -  7 7 mph 1017mb 78f 79f
4:50pm 0.7ft  -  7 9 mph 1017.1mb - 79f
4:40pm  -   -  7 7 mph 1017.1mb - 79f
4:30pm  -   -  7 7 mph 1017.2mb - 78f
4:20pm  -   -  7 7 mph 1017.3mb - 78f
4:10pm 0.7ft  -  7 7 mph 1017.3mb - 78f
4:00pm 1ft 2s 7 7 mph 1017.4mb 78f 78f
3:50pm 0.7ft  -  7 7 mph 1017.4mb - 78f
3:40pm  -   -  7 9 mph 1017.5mb - 78f
3:30pm  -   -  7 9 mph 1017.5mb - 78f
3:20pm  -   -  7 9 mph 1017.5mb - 78f
3:10pm 1ft  -  7 9 mph 1017.6mb - 78f
3:00pm 1ft 2s 7 9 mph 1017.7mb 77f 78f
2:50pm 1ft  -  7 9 mph 1017.8mb - 77f
2:40pm  -   -  7 9 mph 1017.8mb - 77f
2:30pm  -   -  9 9 mph 1017.9mb - 77f
2:20pm  -   -  9 9 mph 1018.1mb - 77f
2:10pm 1ft  -  9 9 mph 1018.2mb - 77f
2:00pm 1ft 3s 9 11 mph 1018.2mb 77f 77f
1:50pm 1ft  -  9 11 mph 1018.2mb - 77f
1:40pm  -   -  9 11 mph 1018.3mb - 77f
1:30pm  -   -  9 11 mph 1018.3mb - 77f
1:20pm  -   -  9 11 mph 1018.4mb - 77f
1:10pm 1ft  -  9 11 mph 1018.4mb - 77f
1:00pm 1ft 3s 9 11 mph 1018.4mb 77f 77f
12:50pm 1ft  -  11 11 mph 1018.5mb - 77f
12:40pm  -   -  11 13 mph 1018.5mb - 77f
12:30pm  -   -  11 13 mph 1018.5mb - 77f
12:20pm  -   -  11 13 mph 1018.5mb - 77f
12:10pm 1.3ft  -  11 13 mph 1018.5mb - 77f
12:00pm 1.3ft 2s 11 13 mph 1018.6mb 77f 77f
11:50am  -   -  11 13 mph 1018.5mb - 77f
11:40am  -   -  11 16 mph 1018.6mb - 76f
11:30am  -   -  11 13 mph 1018.6mb - 76f
11:20am  -   -  11 13 mph 1018.6mb - 76f
11:10am 1ft  -  11 11 mph 1018.6mb - 76f
11:00am 1.3ft 2s 11 13 mph 1018.6mb 76f 76f
10:50am 1ft  -  11 13 mph 1018.5mb - 76f
10:40am  -   -  11 13 mph 1018.5mb - 76f
10:30am  -   -  11 13 mph 1018.5mb - 76f
10:20am  -   -  11 13 mph 1018.6mb - 76f
10:10am 1ft  -  11 13 mph 1018.6mb - 75f
10:00am 1ft 2s 11 13 mph 1018.7mb 76f 75f
9:50am 1ft  -  11 13 mph 1018.6mb - 75f
9:40am  -   -  11 13 mph 1018.6mb - 75f
9:30am  -   -  11 13 mph 1018.7mb - 75f
9:20am  -   -  9 11 mph 1018.7mb - 75f
9:10am 0.7ft  -  7 9 mph 1018.7mb - 75f
9:00am 0.7ft  -  7 9 mph 1018.5mb 76f 75f
8:50am 0.7ft  -  7 7 mph 1018.5mb - 75f
8:40am  -   -  7 7 mph 1018.5mb - 75f
8:30am  -   -  7 9 mph 1018.5mb - 75f
8:20am  -   -  7 9 mph 1018.5mb - 74f
8:10am  -   -  7 9 mph 1018.5mb - 74f
8:00am  -   -  9 9 mph 1018.4mb 76f 74f
7:50am  -   -  9 9 mph 1018.4mb - 74f
7:40am  -   -  9 9 mph 1018.4mb - 74f
7:30am  -   -  9 9 mph 1018.4mb - 73f
7:20am  -   -  7 9 mph 1018.3mb - 73f
7:10am 0.3ft  -  7 9 mph 1018.3mb - 73f
7:00am 0.3ft  -  9 9 mph 1018.2mb 76f 73f
6:50am 0.3ft  -  7 9 mph 1018.2mb - 73f
6:40am  -   -  9 9 mph 1018.1mb - 73f
6:30am  -   -  9 9 mph 1018mb - 73f
6:20am  -   -  9 11 mph 1017.9mb - 73f
6:10am  -   -  9 11 mph 1017.8mb - 73f
6:00am  -   -  9 11 mph 1017.8mb 76f 73f
5:50am  -   -  9 11 mph 1017.7mb - 73f
5:40am  -   -  9 11 mph 1017.7mb - 74f
5:30am  -   -  9 11 mph 1017.7mb - 74f
5:20am  -   -  9 11 mph 1017.6mb - 74f
5:10am  -   -  9 9 mph 1017.5mb - 74f
5:00am  -   -  9 11 mph 1017.4mb 76f 74f
4:50am  -   -  9 11 mph 1017.5mb - 74f
4:40am  -   -  9 9 mph 1017.4mb - 74f
4:30am  -   -  9 9 mph 1017.4mb - 74f
4:20am  -   -  9 11 mph 1017.4mb - 74f
4:10am 0.3ft  -  9 11 mph 1017.3mb - 74f
4:00am 0.3ft  -  9 11 mph 1017.3mb 76f 74f
3:50am  -   -  9 11 mph 1017.2mb - 74f
3:40am  -   -  9 11 mph 1017.3mb - 74f
3:30am  -   -  9 11 mph 1017.3mb - 74f
3:20am  -   -  7 9 mph 1017.3mb - 74f
3:10am 0.3ft  -  7 9 mph 1017.3mb - 74f
3:00am 0.3ft  -  7 9 mph 1017.4mb 76f 74f
2:50am 0.3ft  -  7 7 mph 1017.4mb - 74f
2:40am  -   -  7 9 mph 1017.4mb - 74f
2:30am  -   -  7 7 mph 1017.4mb - 74f
2:20am  -   -  7 7 mph 1017.5mb - 74f
2:10am 0.3ft  -  7 7 mph 1017.6mb - 74f
2:00am 0.3ft  -  7 7 mph 1017.6mb 76f 74f
1:50am  -   -  7 7 mph 1017.8mb - 74f
1:40am  -   -  7 9 mph 1017.9mb - 74f
1:30am  -   -  7 7 mph 1017.9mb - 74f
1:20am  -   -  7 7 mph 1017.9mb - 74f
1:10am 0.7ft  -  7 9 mph 1017.9mb - 74f
1:00am 0.7ft  -  7 9 mph 1018mb 76f 74f
12:50am 0.7ft  -  7 9 mph 1018mb - 74f
12:40am  -   -  7 9 mph 1018.1mb - 74f
12:30am  -   -  7 9 mph 1018.1mb - 74f
12:20am  -   -  9 9 mph 1018.1mb - 74f
12:10am 0.7ft  -  7 9 mph 1018.2mb - 74f
12:00am 0.7ft  -  7 9 mph 1018.3mb 76f 74f
Sat 09/23 11:50pm 0.7ft  -  7 9 mph 1018.4mb - 74f
11:40pm  -   -  7 9 mph 1018.4mb - 74f
11:30pm  -   -  7 9 mph 1018.4mb - 74f
11:20pm  -   -  7 9 mph 1018.5mb - 75f
11:10pm 0.7ft  -  7 7 mph 1018.7mb - 75f
11:00pm 0.7ft  -  7 9 mph 1018.7mb 76f 75f
10:50pm 0.7ft  -  7 9 mph 1018.6mb - 75f
10:40pm  -   -  7 7 mph 1018.6mb - 75f
10:30pm  -   -  7 7 mph 1018.6mb - 75f
10:20pm  -   -  7 7 mph 1018.5mb - 75f
10:10pm 0.7ft  -  7 7 mph 1018.4mb - 75f
10:00pm 0.7ft  -  7 7 mph 1018.3mb 76f 75f
9:50pm 0.7ft  -  7 9 mph 1018.4mb - 75f
9:40pm  -   -  7 9 mph 1018.5mb - 76f
9:30pm  -   -  7 9 mph 1018.4mb - 76f
9:20pm  -   -  4 9 mph 1018.3mb - 77f
9:10pm 0.7ft  -  4 7 mph 1018.3mb - 77f
9:00pm 0.7ft  -  4 4 mph 1018.2mb 76f 77f
8:50pm 0.7ft  -  4 7 mph 1018.2mb - 77f
8:40pm  -   -  4 7 mph 1018.2mb - 77f
8:30pm  -   -   -  2 mph 1018.1mb - 78f
8:20pm  -   -  2 4 mph 1018mb - 78f
8:10pm 0.7ft  -  4 4 mph 1017.9mb - 78f
8:00pm 0.7ft  -  4 4 mph 1017.8mb 76f 78f
7:50pm 0.7ft  -  4 4 mph 1017.7mb - 78f
7:40pm  -   -  4 4 mph 1017.6mb - 77f
7:30pm  -   -  4 4 mph 1017.6mb - 77f
7:20pm  -   -  4 4 mph 1017.5mb - 78f
7:10pm 0.7ft  -  4 4 mph 1017.6mb - 78f
7:00pm 0.7ft  -  4 7 mph 1017.6mb 77f 78f
6:50pm 0.7ft  -  7 7 mph 1017.6mb - 78f
6:40pm  -   -  7 7 mph 1017.6mb - 79f
6:30pm  -   -  7 9 mph 1017.7mb - 79f
6:20pm  -   -  7 9 mph 1017.7mb - 79f
6:10pm 0.7ft  -  9 9 mph 1017.7mb - 79f
6:00pm 0.7ft  -  7 9 mph 1017.6mb 77f 80f
5:50pm 0.7ft  -  7 9 mph 1017.6mb - 79f
5:40pm  -   -  7 9 mph 1017.6mb - 79f
5:30pm  -   -  7 9 mph 1017.5mb - 79f
5:20pm  -   -  7 9 mph 1017.5mb - 78f
5:10pm 1ft  -  7 9 mph 1017.5mb - 78f
5:00pm 1ft 2s 9 9 mph 1017.4mb 77f 78f
4:50pm  -   -  9 11 mph 1017.4mb - 78f
4:40pm  -   -  9 11 mph 1017.4mb - 78f
4:30pm  -   -  9 11 mph 1017.4mb - 78f
4:20pm  -   -  9 11 mph 1017.4mb - 77f
4:10pm 1ft  -  9 11 mph 1017.5mb - 77f
4:00pm 1ft 2s 9 11 mph 1017.6mb 77f 77f
3:50pm  -   -  9 11 mph 1017.6mb - 77f
3:40pm  -   -  9 11 mph 1017.7mb - 76f
3:30pm  -   -  9 9 mph 1017.8mb - 76f
3:20pm  -   -  9 9 mph 1017.9mb - 76f
3:10pm 1ft  -  9 11 mph 1017.8mb - 76f
3:00pm 1ft 2s 11 11 mph 1017.9mb 77f 76f
2:50pm 1ft  -  11 13 mph 1018mb - 76f
2:40pm  -   -  11 13 mph 1018.1mb - 76f
2:30pm  -   -  9 13 mph 1018.1mb - 76f
2:20pm  -   -  9 11 mph 1018mb - 75f
2:10pm 1ft  -  9 11 mph 1018.1mb - 75f
2:00pm 1ft 3s 9 11 mph 1018.1mb 77f 75f
1:50pm 1ft  -  11 13 mph 1018.2mb - 75f
1:40pm  -   -  11 11 mph 1018.3mb - 75f
1:30pm  -   -  11 11 mph 1018.3mb - 75f
1:20pm  -   -  9 11 mph 1018.3mb - 75f
1:10pm 1ft  -  9 11 mph 1018.4mb - 75f
1:00pm 1ft 3s 9 11 mph 1018.4mb 76f 75f
12:50pm 1ft  -  9 11 mph 1018.3mb - 75f
12:40pm  -   -  9 11 mph 1018.4mb - 75f
12:30pm  -   -  9 11 mph 1018.5mb - 75f
12:20pm  -   -  9 11 mph 1018.5mb - 75f
12:10pm 1ft  -  9 11 mph 1018.4mb - 75f
12:00pm 1.3ft 2s 11 13 mph 1018.4mb 76f 75f
11:50am 1ft  -  11 13 mph 1018.4mb - 75f
11:40am  -   -  13 16 mph 1018.6mb - 75f
11:30am  -   -  13 16 mph 1018.6mb - 75f
11:20am  -   -  11 13 mph 1018.4mb - 74f
11:10am 1.3ft  -  11 11 mph 1018.3mb - 74f
11:00am 1.3ft 2s 9 13 mph 1018.3mb 76f 74f
10:50am 1.3ft  -  9 11 mph 1018.3mb - 74f
10:40am  -   -  9 11 mph 1018.4mb - 74f
10:30am  -   -  9 11 mph 1018.4mb - 74f
10:20am  -   -  11 11 mph 1018.4mb - 74f
10:10am 1.3ft  -  11 13 mph 1018.4mb - 74f
10:00am 1.3ft 2s 11 13 mph 1018.2mb 76f 74f
9:50am 1.3ft  -  11 13 mph 1018mb - 74f
9:40am  -   -  13 16 mph 1017.9mb - 75f
9:30am  -   -  13 16 mph 1017.8mb - 75f
9:20am  -   -  13 16 mph 1017.8mb - 75f
9:10am 1.3ft  -  13 13 mph 1017.8mb - 75f
9:00am 1.3ft 2s 13 16 mph 1017.6mb 76f 75f
8:50am 1.3ft  -  13 16 mph 1017.4mb - 75f
8:40am  -   -  13 16 mph 1017.5mb - 75f
8:30am  -   -  13 16 mph 1017.5mb - 75f
8:20am  -   -  13 16 mph 1017.5mb - 75f
8:10am 1ft  -  13 16 mph 1017.5mb - 75f
8:00am 1ft 2s 13 16 mph 1017.6mb 76f 75f
7:50am 1ft  -  13 16 mph 1017.5mb - 75f
7:40am  -   -  13 16 mph 1017.4mb - 74f
7:30am  -   -  11 13 mph 1017.2mb - 73f
7:20am  -   -  9 11 mph 1017.2mb - 72f
7:10am 0.7ft  -  9 11 mph 1017.1mb - 72f
7:00am 0.7ft  -  9 11 mph 1017mb 75f 72f
6:50am 0.7ft  -  9 11 mph 1016.9mb - 72f
6:40am  -   -  9 11 mph 1016.9mb - 72f
6:30am  -   -  9 11 mph 1016.7mb - 72f
6:20am  -   -  7 9 mph 1016.6mb - 71f
6:10am  -   -  7 9 mph 1016.7mb - 71f
6:00am  -   -  9 11 mph 1016.6mb 76f 71f
5:50am  -   -  9 11 mph 1016.5mb - 71f
5:40am  -   -  9 11 mph 1016.4mb - 71f
5:30am  -   -  11 13 mph 1016.3mb - 72f
5:20am  -   -  11 13 mph 1016.2mb - 72f
5:10am  -   -  11 13 mph 1016.1mb - 72f
5:00am  -   -  11 13 mph 1016mb 76f 73f
4:50am  -   -  11 13 mph 1016mb - 73f
4:40am  -   -  11 13 mph 1016.1mb - 73f
4:30am  -   -  11 13 mph 1016.2mb - 73f
4:20am  -   -  11 13 mph 1016.1mb - 73f
4:10am  -   -  11 13 mph 1016.1mb - 73f
4:00am  -   -  11 13 mph 1016.1mb 76f 73f
3:50am  -   -  11 13 mph 1016mb - 73f
3:40am  -   -  11 13 mph 1015.9mb - 74f
3:30am  -   -  11 13 mph 1015.9mb - 74f
3:20am  -   -  11 13 mph 1015.9mb - 73f
3:10am  -   -  11 13 mph 1015.9mb - 73f
3:00am  -   -  11 13 mph 1015.9mb 76f 73f
2:50am  -   -  11 13 mph 1015.9mb - 73f
2:40am  -   -  11 13 mph 1016mb - 73f
2:30am  -   -  9 11 mph 1016.1mb - 73f
2:20am  -   -  11 11 mph 1016.1mb - 73f
2:10am 0.3ft  -  9 11 mph 1016.1mb - 73f
2:00am 0.3ft  -  9 11 mph 1016.1mb 76f 73f
1:50am 0.3ft  -  9 11 mph 1016.1mb - 74f
1:40am  -   -  9 11 mph 1016.1mb - 73f
1:30am  -   -  7 9 mph 1016.1mb - 73f
1:20am  -   -  7 9 mph 1016.1mb - 73f
1:10am 0.3ft  -  7 9 mph 1016.2mb - 73f
1:00am 0.3ft  -  9 9 mph 1016.2mb 76f 74f
12:50am 0.3ft  -  7 9 mph 1016.2mb - 74f
12:40am  -   -  9 9 mph 1016.3mb - 75f
12:30am  -   -  7 9 mph 1016.3mb - 75f
12:20am  -   -  7 9 mph 1016.3mb - 74f
12:10am 0.3ft  -  7 7 mph 1016.4mb - 75f
12:00am 0.3ft  -  7 7 mph 1016.3mb 76f 75f
Fri 09/22 11:50pm  -   -  7 7 mph 1016.2mb - 75f
11:40pm  -   -  7 9 mph 1016.3mb - 75f
11:30pm  -   -  7 7 mph 1016.3mb - 75f
11:20pm  -   -  7 7 mph 1016.4mb - 75f
11:10pm 0.3ft  -  7 9 mph 1016.5mb - 76f
11:00pm 0.3ft  -  4 7 mph 1016.4mb 76f 76f
10:50pm 0.3ft  -  4 7 mph 1016.4mb - 76f
10:40pm  -   -  4 7 mph 1016.3mb - 76f
10:30pm  -   -  4 4 mph 1016.3mb - 76f
10:20pm  -   -  2 4 mph 1016.4mb - 76f
10:10pm 0.3ft  -  2 4 mph 1016.3mb - 76f
10:00pm 0.3ft  -  2 4 mph 1016.2mb 76f 76f
9:50pm  -   -  4 4 mph 1016.3mb - 76f
9:40pm  -   -  4 4 mph 1016.2mb - 76f
9:30pm  -   -  2 4 mph 1016.2mb - 76f
9:20pm  -   -  2 2 mph 1016.3mb - 76f
9:10pm 0.3ft  -  2 2 mph 1016.3mb - 76f
9:00pm 0.3ft  -  2 4 mph 1016.2mb 76f 76f
8:50pm 0.3ft  -  2 4 mph 1016mb - 76f
8:40pm  -   -  2 4 mph 1016mb - 76f
8:30pm  -   -   -  0 mph 1016mb - 76f
8:20pm  -   -   -  0 mph 1015.9mb - 76f
8:10pm 0.3ft  -   -  2 mph 1015.9mb - 76f
8:00pm 0.3ft  -   -  2 mph 1015.7mb 76f 76f
7:50pm 0.3ft  -   -  2 mph 1015.6mb - 76f
7:40pm  -   -   -  2 mph 1015.5mb - 76f